Location: Newark
(41.0000°N, 28.9500°W)
Time: 06:41:28
(UTC+00:00)

N. Korean satellite - Pass Details

Date: 01 February 2020
Orbit: 456 x 505 km, 97.2° (Epoch: 27 February)

Event Time Altitude Azimuth Distance (km) Brightness Sun altitude
Rises 07:26:35 0° 17° (NNE) 2,568 10.4 -19.1°
Reaches altitude 10° 07:28:41 10° 22° (NNE) 1,690 9.5 -18.7°
Maximum altitude 07:32:15 51° 100° (E) 631 7.5 -18.1°
Drops below altitude 10° 07:35:49 10° 177° (S) 1,698 9.4 -17.4°
Sets 07:37:56 0° 182° (S) 2,582 10.3 -17.0°
